OSCAR 7 (AO-7) 1 07530U 74089B 26246.52772061 -.00000053 00000+0 -41756-4 0 9999 2 07530 101.9921 260.5936 0012152 343.5499 183.3688 12.53699399370338 PHASE 3B (AO-10) 1 14129U 83058B 26246.05220749 -.00000009 00000+0 00000+0 0 9998 2 14129 25.9715 206.8146 5985571 137.0259 289.6643 2.05870144297098 UOSAT 2 (UO-11) 1 14781U 84021B 26246.34444691 .00000813 00000+0 87973-4 0 9990 2 14781 97.8147 211.0902 0006107 290.6044 69.4519 14.90965871268777 LUSAT (LO-19) 1 20442U 90005G 26246.53161013 .00000026 00000+0 25976-4 0 9996 2 20442 98.8833 270.4882 0011123 341.7577 18.3206 14.34141599913628 EYESAT A (AO-27) 1 22825U 93061C 26246.59376417 .00000031 00000+0 28854-4 0 9994 2 22825 98.6812 313.9524 0007580 224.6620 135.3952 14.30959123718218 ITAMSAT (IO-26) 1 22826U 93061D 26246.47986000 .00000034 00000+0 29544-4 0 9997 2 22826 98.6760 313.7643 0008363 207.1273 152.9473 14.31387768718518 RADIO ROSTO (RS15) 1 23439U 94085A 26246.78317756 -.00000030 00000+0 35262-3 0 9995 2 23439 64.8166 176.1023 0158802 349.6798 10.0880 11.27584118304769 JAS-2 (FO-29) 1 24278U 96046B 26246.16214900 -.00000040 00000+0 -18419-5 0 9994 2 24278 98.5181 84.3453 0348853 254.0426 102.2024 13.53277568483719 TECHSAT 1B (GO-32) 1 25397U 98043D 26246.45519830 .00000011 00000+0 25077-4 0 9991 2 25397 99.0140 241.2127 0001595 34.3286 325.7995 14.24441079462475 ISS (ZARYA) 1 25544U 98067A 26246.56303513 .00003925 00000+0 79431-4 0 9992 2 25544 51.6315 272.1807 0005017 103.2669 256.8879 15.48980167583909 PCSAT (NO-44) 1 26931U 01043C 26245.89655315 .00000030 00000+0 42131-4 0 9997 2 26931 67.0507 43.2738 0005668 271.1600 88.8852 14.31980243301577 SAUDISAT 1C (SO-50) 1 27607U 02058C 26246.44033043 .00000550 00000+0 82640-4 0 9991 2 27607 64.5502 246.8434 0072636 248.0877 111.2497 14.83191838276069 CUTE-1 (CO-55) 1 27844U 03031E 26246.01123856 .00000152 00000+0 84690-4 0 9996 2 27844 98.6769 253.6027 0008840 325.9306 34.1304 14.24375838202751 CUBESAT XI-IV (CO-57) 1 27848U 03031J 26246.46060080 .00000125 00000+0 74090-4 0 9991 2 27848 98.6800 253.6960 0009110 344.5218 15.5681 14.23655534202515 MOZHAETS 4 (RS22) 1 27939U 03042A 26246.85789014 .00000807 00000+0 13217-3 0 9992 2 27939 98.3488 73.4592 0011894 24.8085 99.7302 14.73586966227132 CUBESAT XI-V 1 28895U 05043F 26246.40003244 .00000757 00000+0 12660-3 0 9997 2 28895 98.3087 43.7192 0013133 321.6169 38.4102 14.72804619113267 CUTE-1.7+APD II (CO-65) 1 32785U 08021C 26246.71984948 .00002748 00000+0 17279-3 0 9995 2 32785 97.8361 229.8437 0010229 116.3849 243.8430 15.10080181997040 SEEDS II (CO-66) 1 32791U 08021J 26246.47777933 .00012282 00000+0 36152-3 0 9994 2 32791 97.7568 248.2813 0004152 63.8049 296.3620 15.35217426999298 YUBILEINY (RS30) 1 32953U 08025A 26246.80605618 .00000039 00000+0 20897-3 0 9991 2 32953 82.5043 306.5464 0020489 138.0530 222.2123 12.43182673829467 KKS-1 (KISEKI) 1 33499U 09002H 26246.78265141 .00000762 00000+0 99920-4 0 9990 2 33499 98.1158 170.4660 0008864 42.9246 317.2657 14.83291926947847 SWISSCUBE 1 35932U 09051B 26246.22938914 .00000573 00000+0 12257-3 0 9999 2 35932 98.3952 155.4513 0006423 341.7950 18.3020 14.62607337900561 BEESAT-1 1 35933U 09051C 26245.73241853 .00000491 00000+0 10804-3 0 9999 2 35933 98.3879 154.4172 0005306 1.1215 358.9996 14.61825294900513 ITUPSAT1 1 35935U 09051E 26246.47651297 .00000416 00000+0 95784-4 0 9998 2 35935 98.3958 154.2790 0007667 6.2531 353.8763 14.60538258900163 XIWANG-1 (HOPE-1) 1 36122U 09072B 26246.82690694 .00000296 00000+0 89262-3 0 9992 2 36122 100.4100 199.4232 0008145 56.7321 303.4571 13.16442891803355 O/OREOS (USA 219) 1 37224U 10062C 26246.47627966 .00001064 00000+0 10559-3 0 9997 2 37224 71.9676 262.9601 0016633 275.7169 84.2105 14.94002056128336 JUGNU 1 37839U 11058B 26246.15554476 .00000391 00000+0 64561-4 0 9990 2 37839 19.9595 194.7307 0018526 217.0187 258.2289 14.13795183770078 SRMSAT 1 37841U 11058D 26246.18399727 .00000358 00000+0 50299-4 0 9998 2 37841 19.9724 307.3668 0011771 343.1487 42.0039 14.11590090768859 STRAND-1 1 39090U 13009E 26246.72746825 .00000131 00000+0 58296-4 0 9993 2 39090 98.3966 65.0528 0008670 4.5525 355.5739 14.37201751708342 ZACUBE-1 (TSHEPISOSAT) 1 39417U 13066B 26246.38249574 .00003758 00000+0 28870-3 0 9992 2 39417 97.8090 209.1040 0041065 351.6320 8.4214 15.01709534692462 GOMX-1 1 39430U 13066Q 26246.82818251 .00001443 00000+0 22149-3 0 9992 2 39430 97.6444 82.3344 0127790 184.1366 175.8797 14.69663107681466 CUBEBUG-2 (LO-74) 1 39440U 13066AA 26246.29021819 .00002079 00000+0 19326-3 0 9999 2 39440 97.8966 195.6485 0058328 127.1434 233.5134 14.94208892688654 FUNCUBE-1 (AO-73) 1 39444U 13066AE 26246.38537963 .00004338 00000+0 26435-3 0 9994 2 39444 97.8366 219.5526 0033750 299.2079 60.5775 15.10467825691466 UWE-3 1 39446U 13066AG 26246.34027397 .00002408 00000+0 20697-3 0 9997 2 39446 97.8768 202.9938 0049492 59.5930 301.0170 14.97473479689274 UNISAT-6 1 40012U 14033C 26246.38569616 .00001923 00000+0 20880-3 0 9997 2 40012 97.7983 37.7875 0044992 168.8887 191.3334 14.88574495657796 DUCHIFAT-1 1 40021U 14033M 26246.64687300 .00431468 76189-4 11623-2 0 9998 2 40021 98.0275 318.2223 0006179 232.0530 128.0186 15.94312637668107 QB50P1 1 40025U 14033R 26246.48415301 .00004338 00000+0 20900-3 0 9999 2 40025 98.0977 263.1889 0007401 326.9720 33.1049 15.19323149664915 LILACSAT-2 1 40908U 15049K 26246.89614235 .00012975 00000+0 20255-3 0 9998 2 40908 97.4581 286.8393 0005342 339.3246 20.7790 15.53944203607969 FOX-1A (AO-85) 1 40967U 15058D 26246.81960801 .00001085 00000+0 10608-3 0 9999 2 40967 64.7742 34.5350 0136984 27.0455 333.7708 14.91356560125292 CAS-2T & KS-1Q 1 41847U 16066G 26246.63622646 .00000436 00000+0 71328-4 0 9995 2 41847 98.3766 321.4724 0340097 251.4369 104.9601 14.44824748516123 RADFXSAT (FOX-1B) 1 43017U 17073E 26246.56816977 .00005685 00000+0 24209-3 0 9995 2 43017 97.4583 112.1831 0149186 58.0787 303.4855 15.13750486477246 DIWATA-2B 1 43678U 18084H 26246.85405944 .00001092 00000+0 91396-4 0 9991 2 43678 98.1190 86.5253 0010795 266.6410 93.3578 15.00700149428011 ES'HAIL 2 1 43700U 18090A 26246.60299455 .00000142 00000+0 00000+0 0 9997 2 43700 0.0171 225.7431 0002680 334.4790 25.4064 1.00273407 28460 FOX-1CLIFF (AO-95) 1 43770U 18099N 26246.62352672 .00006742 00000+0 24758-3 0 9998 2 43770 97.4306 306.6326 0009855 75.0527 285.1803 15.28219276425192 ITASAT 1 43786U 18099AE 26246.58474773 .00003521 00000+0 16669-3 0 9991 2 43786 97.3955 296.5477 0013947 80.8270 279.4543 15.19910914424810 JY1SAT (JO-97) 1 43803U 18099AX 26245.67914214 .00011054 00000+0 31782-3 0 9992 2 43803 97.4050 308.8805 0005070 11.0171 349.1183 15.35966712425511 UWE-4 1 43880U 18111E 26245.76187485 .00027654 00000+0 47817-3 0 9993 2 43880 97.5814 177.9955 0009026 57.7499 302.4626 15.50890010422785 TIANYAN 01 1 44881U 19093C 26246.86494977 -.00000113 00000+0 -67428-5 0 9999 2 44881 97.7464 317.1570 0013201 181.8735 178.2434 14.86618500363109 RS-44 & BREEZE-KM R/B 1 44909U 19096E 26246.57545216 .00000009 00000+0 -30063-5 0 9992 2 44909 82.5190 287.6230 0216738 321.3347 37.2403 12.79749121312379 SALSAT 1 46495U 20068K 26246.48051839 .00004593 00000+0 15704-3 0 9992 2 46495 97.8890 254.3854 0010379 37.1076 323.0879 15.30786953327333 XW-3 (CAS-9) 1 50466U 21131B 26246.84363024 .00000318 00000+0 11174-3 0 9997 2 50466 98.4971 338.8066 0003400 207.2946 152.8065 14.41418064246442 GREENCUBE (IO-117) 1 53109U 22080E 26246.00247990 -.00000003 00000+0 00000+0 0 9993 2 53109 70.1237 271.1821 0009248 272.5744 87.3857 6.42583754 97060 UMKA 1 (RS40S) 1 57172U 23091G 26246.83107806 .00003517 00000+0 15885-3 0 9995 2 57172 97.4973 305.2365 0011999 197.6406 162.4415 15.21580397175961 CUBESX-HSE 3 (RS42S) 1 57178U 23091N 26246.80878645 .00008360 00000+0 26472-3 0 9999 2 57178 97.5016 313.4597 0010657 165.1503 195.0053 15.32953445176468 MONITOR-3 (RS58S) 1 57180U 23091Q 26246.81994093 .00006519 00000+0 23232-3 0 9994 2 57180 97.5006 310.8903 0011393 174.0790 186.0586 15.29209594176306 MONITOR-4 (RS57S) 1 57182U 23091S 26246.79446044 .00006441 00000+0 22893-3 0 9997 2 57182 97.5000 310.8402 0011421 174.3638 185.7733 15.29300444176308 MONITOR-2 (RS39S) 1 57184U 23091U 26246.82328155 .00002811 00000+0 13546-3 0 9997 2 57184 97.4994 304.5993 0010649 190.5887 169.5125 15.19523851175899 SVYATOBOR 1 (RS60S) 1 57187U 23091X 26246.81526760 .00005441 00000+0 20314-3 0 9994 2 57187 97.5013 311.1019 0009508 165.8562 194.2945 15.27772376176315 VIZARD-METEO (RS38S) 1 57189U 23091Z 26246.78388132 .00010935 00000+0 29155-3 0 9997 2 57189 97.5018 317.9471 0007814 141.3373 218.8432 15.38304373176768 POLYTECH-UNIVERSE 3 (R*) 1 57191U 23091AB 26246.83946431 .00002846 00000+0 13607-3 0 9995 2 57191 97.4971 304.1202 0014401 209.8125 150.2290 15.19740874175896 UTMN 2 (RS27S) 1 57203U 23091AP 26246.78451303 .00008091 00000+0 25003-3 0 9993 2 57203 97.5012 315.1633 0008415 150.4042 209.7678 15.33764444176586 KUZGTU 1 (RS47S) 1 57217U 23091AV 26246.80824095 .00007648 00000+0 25408-3 0 9999 2 57217 97.4987 312.1488 0010803 169.3804 190.7667 15.31439103176402 SONATE-2 1 59112U 24043Q 26246.37449622 .00035776 00000+0 36751-3 0 9990 2 59112 97.5616 41.9712 0005084 269.4796 90.5880 15.64823473140095 MESAT1 1 60209U 24125G 26246.15919897 .00071518 00000+0 51444-3 0 9992 2 60209 97.2146 105.9163 0005201 276.8615 83.2057 15.73379480121787 GRBBETA 1 60237U 24128C 26246.72112507 .00001490 00000+0 11232-3 0 9995 2 60237 61.9899 300.6277 0029287 151.8919 208.3763 15.07122543118109 OOV-CUBE (TUBSAT-30) 1 60240U 24128F 26246.16484681 .00001156 00000+0 10004-3 0 9997 2 60240 61.9950 313.6100 0033844 151.7653 208.5282 15.03063312117839 COLIBRI-S (RS67S) 1 61746U 24199M 26246.79465488 .00015882 00000+0 27604-3 0 9995 2 61746 97.2837 121.4868 0007845 10.6749 349.4668 15.50863468149586 HORS 3 (RS81S) 1 61753U 24199U 26246.78223082 .00033800 00000+0 40859-3 0 9991 2 61753 97.2826 124.4491 0005019 18.3152 341.8285 15.60633172149793 HORS 4 (RS82S) 1 61754U 24199V 26246.83081208 .00057702 00000+0 52033-3 0 9994 2 61754 97.2758 126.3435 0003441 19.3581 340.7811 15.67992225149934 SIT-2086 1 61764U 24199AF 26246.79129528 .00031658 00000+0 41131-3 0 9997 2 61764 97.2781 124.6615 0004698 357.0126 3.1101 15.58740883146653 ALTAIR (RS65S) 1 61779U 24199AW 26246.78752590 .00006323 00000+0 16905-3 0 9995 2 61779 97.2902 115.6446 0013144 30.9384 329.2633 15.38335638149195 ASRTU-1 (AO-123) 1 61781U 24199AY 26246.78682597 .00004912 00000+0 13885-3 0 9993 2 61781 97.2872 114.7554 0014395 33.1992 327.0153 15.36703552145992 SAMSAT-IONOSPHERE (RS7*) 1 61784U 24199BB 26246.83129413 .00050658 00000+0 51040-3 0 9998 2 61784 97.2783 124.9286 0006097 10.4339 349.7046 15.65234772149838 RTU MIREA 1 (RS51S) 1 61785U 24199BC 26246.81744139 .00073838 00000+0 57883-3 0 9991 2 61785 97.2759 126.2820 0004704 13.7358 346.4032 15.71333183146773 LASARSAT 1 62391U 24247Q 26246.85803100 .00029671 00000+0 49816-3 0 9990 2 62391 44.9716 178.5192 0007635 128.2008 231.9572 15.51280993 95511 CROCUBE 1 62394U 24247T 26246.09744806 .00034434 00000+0 52350-3 0 9996 2 62394 44.9691 178.6306 0008079 133.3796 226.7771 15.53966732 95447 TEVEL2-4 1 63213U 25052D 26246.68770237 .00012092 00000+0 33414-3 0 9990 2 63213 97.3776 143.3077 0003214 139.9121 220.2361 15.37186988 82166 TEVEL2-5 1 63214U 25052E 26246.65300041 .00012222 00000+0 34011-3 0 9999 2 63214 97.3774 143.1962 0003000 141.8350 218.3108 15.36967643 82155 TEVEL2-6 1 63215U 25052F 26246.14624772 .00011694 00000+0 32600-3 0 9998 2 63215 97.3778 142.6725 0002918 143.3877 216.7567 15.36922287 82076 TEVEL2-1 1 63217U 25052H 26246.53038162 .00011978 00000+0 34056-3 0 9997 2 63217 97.3750 142.5831 0002626 154.0661 206.0715 15.36302386 82115 TEVEL2-3 1 63218U 25052J 26246.19605262 .00012274 00000+0 34815-3 0 9994 2 63218 97.3755 142.2819 0002366 151.8455 208.2917 15.36369890 82066 TEVEL2-2 1 63219U 25052K 26246.66036564 .00012088 00000+0 34346-3 0 9992 2 63219 97.3751 142.7177 0002695 155.6658 204.4714 15.36320002 82130 OTP-2 1 63235U 25052AB 26246.66545986 .00004166 00000+0 17029-3 0 9990 2 63235 97.3741 137.9289 0004398 237.3983 122.6831 15.24905017 81826 TEVEL2-9 1 63237U 25052AD 26246.15712035 .00010817 00000+0 32976-3 0 9995 2 63237 97.3812 141.4080 0004630 204.4243 155.6781 15.34121893 81978 TEVEL2-7 1 63238U 25052AE 26246.67117507 .00010226 00000+0 31533-3 0 9998 2 63238 97.3813 141.8014 0004651 202.9397 157.1639 15.33776485 82047 TEVEL2-8 1 63239U 25052AF 26245.70148036 .00010200 00000+0 31484-3 0 9990 2 63239 97.3816 140.8072 0004593 208.3804 151.7190 15.33745411 81891 INNOSAT 16 (RS92S7) 1 64878U 25155C 26246.82869219 .00003737 00000+0 14718-3 0 9999 2 64878 97.4656 213.7865 0008330 268.6475 91.3809 15.26213555 92664 GEOSCAN 6 (RS92S6) 1 64879U 25155D 26246.88128270 .00007180 00000+0 23829-3 0 9990 2 64879 97.4644 215.8537 0005397 253.2905 106.7744 15.31534599 92804 GEOSCAN 1 (RS92S1) 1 64880U 25155E 26246.78452657 .00007254 00000+0 23543-3 0 9995 2 64880 97.4639 215.9796 0005226 253.2850 106.7818 15.32250612 92802 239ALFEROV (RS61S) 1 64881U 25155F 26246.82493964 .00009999 00000+0 29732-3 0 9991 2 64881 97.4636 216.8739 0004633 249.4726 110.6020 15.34940584 92868 GEOSCAN 2 (RS92S2) 1 64890U 25155Q 26246.83037279 .00007442 00000+0 23963-3 0 9996 2 64890 97.4639 216.2082 0004842 233.0100 127.0699 15.32498078 92827 GEOSCAN 5 (RS92S5) 1 64891U 25155R 26246.86367775 .00010739 00000+0 31618-3 0 9996 2 64891 97.4629 217.0792 0003541 255.1822 104.9029 15.35235380 92880 GEOSCAN 4 (RS92S4) 1 64892U 25155S 26246.83896862 .00010123 00000+0 29637-3 0 9993 2 64892 97.4635 217.1286 0003410 254.7098 105.3768 15.35428922 92883 GEOSCAN 3 (RS92S3) 1 64893U 25155T 26246.85542727 .00013820 00000+0 37254-3 0 9995 2 64893 97.4619 217.8306 0003181 251.1965 108.8935 15.37928551 92930 INNOSAT 3 (RS92S0) 1 64894U 25155U 26246.85495213 .00037011 00000+0 66786-3 0 9993 2 64894 97.4554 220.5998 0001597 200.9618 159.1568 15.49662201 93126 KNACKSAT-2 1 67683U 98067XZ 26246.51656084 .00042884 00000+0 38997-3 0 9999 2 67683 51.6254 258.3445 0007537 115.8283 244.3491 15.67481086 32532 MARINA 1 69920U 26156BD 26246.68786536 .00001345 00000+0 13772-3 0 9990 2 69920 97.7458 146.1859 0006712 332.6521 27.4344 14.92127150 8701